DW5164 Weather Reports


time (UTC)temp
C
wind
direction
speed
KPH
gust
KPH
rain 1hr
cm
rain 24hr
cm
rain mn
cm
humidity
%
barometer
mb
20260906110941 30 100 4.8 16.1 0.00 0.00 0.00 59 1020.4
20260906105940 30 84 11.3 22.5 0.00 0.00 0.00 61 1020.5
20260906105439 30 60 11.3 20.9 0.00 0.00 0.00 62 1020.5
20260906104940 30 100 14.5 20.9 0.00 0.00 0.00 62 1020.5
20260906104439 30 100 14.5 20.9 0.00 0.00 0.00 61 1020.5
20260906103940 30 87 11.3 22.5 0.00 0.00 0.00 61 1020.5
20260906103440 30 112 16.1 22.5 0.00 0.00 0.00 61 1020.5
20260906102940 29 116 9.7 16.1 0.00 0.00 0.00 61 1020.6
20260906101939 29 82 14.5 20.9 0.00 0.00 0.00 62 1020.6
20260906101440 30 131 12.9 19.3 0.00 0.00 0.00 63 1020.7
20260906100939 29 103 12.9 20.9 0.00 0.00 0.00 63 1020.8
20260906100439 29 108 11.3 24.1 0.00 0.00 0.00 62 1020.8
20260906095939 29 105 11.3 19.3 0.00 0.00 0.00 64 1020.8
20260906094940 29 90 14.5 20.9 0.00 0.00 0.00 61 1020.8
20260906094440 29 78 16.1 25.7 0.00 0.00 0.00 61 1020.9
20260906093940 29 89 12.9 22.5 0.00 0.00 0.00 58 1020.9
20260906092439 29 71 19.3 29.0 0.00 0.00 0.00 55 1020.9
20260906091940 29 73 16.1 27.4 0.00 0.00 0.00 57 1021.0
20260906090940 28 75 11.3 29.0 0.00 0.00 0.00 57 1021.0
20260906090439 28 105 17.7 35.4 0.00 0.00 0.00 56 1021.0
20260906085940 28 77 20.9 29.0 0.00 0.00 0.00 55 1021.0
20260906085439 28 79 9.7 16.1 0.00 0.00 0.00 60 1021.0
20260906084940 28 86 14.5 20.9 0.00 0.00 0.00 60 1021.0
20260906084440 28 62 14.5 20.9 0.00 0.00 0.00 59 1021.0
20260906083940 28 97 14.5 24.1 0.00 0.00 0.00 60 1021.0
20260906083439 28 99 17.7 27.4 0.00 0.00 0.00 61 1020.9
20260906082439 28 93 11.3 20.9 0.00 0.00 0.00 62 1020.8
20260906081939 28 88 11.3 22.5 0.00 0.00 0.00 62 1020.8
20260906081440 27 91 16.1 25.7 0.00 0.00 0.00 62 1020.7
20260906080939 27 99 9.7 16.1 0.00 0.00 0.00 65 1020.7
20260906080439 27 91 9.7 16.1 0.00 0.00 0.00 65 1020.6
20260906075940 27 113 12.9 20.9 0.00 0.00 0.00 66 1020.6
20260906075440 27 98 9.7 20.9 0.00 0.00 0.00 67 1020.7
20260906074939 26 103 14.5 20.9 0.00 0.00 0.00 67 1020.7
20260906073940 26 116 9.7 14.5 0.00 0.00 0.00 72 1020.7
20260906073440 26 115 6.4 11.3 0.00 0.00 0.00 72 1020.7
20260906072939 26 115 9.7 14.5 0.00 0.00 0.00 72 1020.6
20260906072439 26 115 6.4 11.3 0.00 0.00 0.00 72 1020.6
20260906071939 26 98 6.4 11.3 0.00 0.00 0.00 74 1020.6
20260906070940 25 106 4.8 12.9 0.00 0.00 0.00 74 1020.5
20260906070440 25 134 3.2 4.8 0.00 0.00 0.00 75 1020.5
20260906065939 25 91 4.8 8.0 0.00 0.00 0.00 75 1020.5
20260906065438 25 96 6.4 11.3 0.00 0.00 0.00 75 1020.4
20260906064941 25 62 3.2 8.0 0.00 0.00 0.00 78 1020.3
20260906064439 24 100 4.8 8.0 0.00 0.00 0.00 77 1020.3
20260906063940 24 109 6.4 11.3 0.00 0.00 0.00 77 1020.2
20260906063439 24 136 4.8 11.3 0.00 0.00 0.00 77 1020.2
20260906062438 24 102 6.4 12.9 0.00 0.00 0.00 79 1020.1
20260906061939 23 109 4.8 8.0 0.00 0.00 0.00 80 1020.1
20260906061439 23 110 3.2 8.0 0.00 0.00 0.00 80 1020.0
20260906060939 23 101 3.2 8.0 0.00 0.00 0.00 80 1020.0
20260906060439 23 96 1.6 4.8 0.00 0.00 0.00 80 1019.9
20260906055940 23 111 0.0 3.2 0.00 0.00 0.00 81 1019.8
20260906055440 23 123 0.0 1.6 0.00 0.00 0.00 81 1019.8
20260906054939 22 121 3.2 8.0 0.00 0.00 0.00 80 1019.8
20260906054439 22 112 4.8 8.0 0.00 0.00 0.00 81 1019.7
20260906053939 22 104 3.2 8.0 0.00 0.00 0.00 81 1019.6
20260906053439 22 85 3.2 4.8 0.00 0.00 0.00 83 1019.6
20260906052938 22 84 1.6 4.8 0.00 0.00 0.00 83 1019.5
20260906052439 22 84 3.2 4.8 0.00 0.00 0.00 84 1019.5
20260906051440 21 86 3.2 8.0 0.00 0.00 0.00 86 1019.3
20260906050941 22 89 3.2 4.8 0.00 0.00 0.00 86 1019.2
20260906050439 22 101 3.2 4.8 0.00 0.00 0.00 86 1019.3
20260906045939 22 108 1.6 3.2 0.00 0.00 0.00 87 1019.2
20260906045439 22 111 1.6 4.8 0.00 0.00 0.00 87 1019.1
20260906044439 22 72 4.8 4.8 0.00 0.00 0.00 87 1019.0
20260906043939 22 81 3.2 4.8 0.00 0.00 0.00 88 1018.9
20260906043438 22 71 3.2 4.8 0.00 0.00 0.00 88 1019.0
20260906042939 22 79 3.2 4.8 0.00 0.00 0.00 88 1018.9
20260906042440 22 86 0.0 0.0 0.00 0.00 0.00 88 1018.9
20260906041938 22 86 0.0 0.0 0.00 0.00 0.00 87 1018.9
20260906041439 22 86 0.0 0.0 0.00 0.00 0.00 87 1018.9
20260906040940 22 86 0.0 1.6 0.00 0.00 0.00 87 1018.8
20260906040438 22 86 3.2 4.8 0.00 0.00 0.00 87 1018.7
20260906035439 22 78 4.8 9.7 0.00 0.00 0.00 87 1018.6
20260906034439 22 74 4.8 9.7 0.00 0.00 0.00 87 1018.5
20260906033938 22 98 3.2 8.0 0.00 0.00 0.00 87 1018.5
20260906033438 22 85 4.8 9.7 0.00 0.00 0.00 87 1018.4
20260906032939 23 88 4.8 9.7 0.00 0.00 0.00 87 1018.4
20260906031939 23 93 3.2 8.0 0.00 0.00 0.00 86 1018.3
20260906031438 23 84 3.2 8.0 0.00 0.00 0.00 86 1018.3
20260906030940 23 79 6.4 11.3 0.00 0.00 0.00 86 1018.3
20260906030439 23 90 4.8 9.7 0.00 0.00 0.00 86 1018.3
20260906025439 23 67 8.0 12.9 0.00 0.00 0.00 85 1018.3
20260906024439 23 62 9.7 14.5 0.00 0.00 0.00 85 1018.3
20260906023438 23 65 8.0 14.5 0.00 0.00 0.00 84 1018.3
20260906022438 23 77 11.3 14.5 0.00 0.00 0.00 84 1018.3
20260906021938 23 76 9.7 14.5 0.00 0.00 0.00 83 1018.2
20260906021438 24 81 11.3 16.1 0.00 0.00 0.00 83 1018.1
20260906020938 24 69 9.7 20.9 0.00 0.00 0.00 83 1018.1
20260906020438 24 70 11.3 22.5 0.00 0.00 0.00 83 1018.1
20260906014939 24 74 11.3 19.3 0.00 0.00 0.00 83 1018.1
20260906014438 24 71 11.3 19.3 0.00 0.00 0.00 84 1018.0
20260906013938 24 69 12.9 19.3 0.00 0.00 0.00 85 1018.0
20260906012940 23 68 11.3 16.1 0.00 0.00 0.00 87 1018.0
20260906012439 23 60 9.7 12.9 0.00 0.00 0.00 88 1017.9
20260906011938 23 61 6.4 12.9 0.00 0.00 0.00 88 1017.9
20260906010938 23 66 8.0 11.3 0.00 0.00 0.00 88 1017.9
20260906010438 23 65 4.8 8.0 0.00 0.00 0.00 88 1017.8
20260906005939 23 63 4.8 9.7 0.00 0.00 0.00 88 1017.8
20260906004938 23 57 6.4 11.3 0.00 0.00 0.00 88 1017.7
20260906004438 23 61 4.8 4.8 0.00 0.00 0.00 88 1017.7
20260906003937 23 59 4.8 8.0 0.00 0.00 0.00 88 1017.7
20260906003438 23 61 4.8 8.0 0.00 0.00 0.00 88 1017.7
20260906002938 23 73 4.8 11.3 0.00 0.00 0.00 88 1017.7
20260906002439 23 73 4.8 11.3 0.00 0.00 0.00 88 1017.7
20260906001438 23 64 6.4 11.3 0.00 0.00 0.00 88 1017.7
20260906000938 23 67 6.4 11.3 0.00 0.00 0.00 88 1017.7
20260906000440 23 64 6.4 12.9 0.00 0.00 0.00 88 1017.7
20260905235937 23 65 4.8 11.3 0.00 0.00 0.00 88 1017.7
20260905235439 23 68 4.8 8.0 0.00 0.00 0.00 88 1017.7
20260905234939 23 67 3.2 8.0 0.00 0.00 0.00 88 1017.7
20260905233938 23 65 8.0 11.3 0.00 0.00 0.00 88 1017.7
20260905233438 23 64 8.0 11.3 0.00 0.00 0.00 88 1017.7
20260905232937 23 64 4.8 11.3 0.00 0.00 0.00 88 1017.7
20260905232437 23 73 3.2 4.8 0.00 0.00 0.00 87 1017.7
20260905231938 23 78 3.2 4.8 0.00 0.00 0.00 87 1017.6
20260905231438 23 80 4.8 9.7 0.00 0.00 0.00 87 1017.6
20260905230938 23 61 6.4 12.9 0.00 0.00 0.00 87 1017.6
20260905230438 23 67 8.0 12.9 0.00 0.00 0.00 88 1017.5
20260905225937 23 66 8.0 14.5 0.00 0.00 0.00 88 1017.5
20260905225438 23 64 8.0 12.9 0.00 0.00 0.00 88 1017.4
20260905224937 23 60 6.4 11.3 0.00 0.00 0.00 88 1017.4
20260905224437 23 67 4.8 9.7 0.00 0.00 0.00 88 1017.5
20260905223937 23 65 4.8 8.0 0.00 0.00 0.00 88 1017.4
20260905222938 23 63 6.4 11.3 0.00 0.00 0.00 88 1017.3
20260905222437 23 68 4.8 12.9 0.00 0.00 0.00 87 1017.2
20260905221938 24 66 6.4 12.9 0.00 0.00 0.00 86 1017.2
20260905221437 24 64 8.0 12.9 0.00 0.00 0.00 86 1017.1
20260905220937 24 65 6.4 11.3 0.00 0.00 0.00 85 1017.1
20260905220438 24 60 8.0 11.3 0.00 0.00 0.00 84 1017.1
20260905215938 24 64 4.8 11.3 0.00 0.00 0.00 84 1017.0
20260905215437 24 60 8.0 12.9 0.00 0.00 0.00 83 1017.0
20260905214937 24 66 4.8 11.3 0.00 0.00 0.00 82 1016.9
20260905214438 24 64 8.0 11.3 0.00 0.00 0.00 81 1016.9
20260905213937 25 67 6.4 11.3 0.00 0.00 0.00 80 1016.8
20260905213438 25 70 4.8 8.0 0.00 0.00 0.00 80 1016.8
20260905212937 25 67 4.8 8.0 0.00 0.00 0.00 79 1016.7
20260905212438 25 65 4.8 11.3 0.00 0.00 0.00 78 1016.7
20260905211937 25 65 8.0 12.9 0.00 0.00 0.00 77 1016.6
20260905211439 25 74 9.7 12.9 0.00 0.00 0.00 76 1016.5
20260905210938 25 66 8.0 11.3 0.00 0.00 0.00 75 1016.5
20260905205444 25 63 8.0 12.9 0.00 0.00 0.00 74 1016.2
20260905203953 25 66 9.7 16.1 0.00 0.00 0.00 77 1016.2
20260905202944 25 93 4.8 11.3 0.00 0.00 0.00 76 1015.9
20260905202437 25 87 4.8 11.3 0.00 0.00 0.00 76 1015.9
20260905201937 25 83 4.8 8.0 0.00 0.00 0.00 75 1015.9
20260905200940 25 80 4.8 9.7 0.00 0.00 0.00 75 1015.8
20260905200437 25 83 3.2 8.0 0.00 0.00 0.00 75 1015.7
20260905195937 25 82 4.8 8.0 0.00 0.00 0.00 75 1015.7
20260905195437 26 82 3.2 4.8 0.00 0.00 0.00 74 1015.7
20260905194437 26 81 4.8 8.0 0.00 0.00 0.00 74 1015.6
20260905193937 26 82 4.8 8.0 0.00 0.00 0.00 74 1015.5
20260905193437 26 79 4.8 8.0 0.00 0.00 0.00 75 1015.5
20260905192937 26 74 4.8 4.8 0.00 0.00 0.00 76 1015.4
20260905192437 26 74 3.2 4.8 0.00 0.00 0.00 75 1015.3
20260905191937 26 74 1.6 3.2 0.00 0.00 0.00 74 1015.3
20260905191437 26 74 3.2 4.8 0.00 0.00 0.00 73 1015.2
20260905190937 26 74 3.2 4.8 0.00 0.00 0.00 72 1015.1
20260905185939 26 74 3.2 4.8 0.00 0.00 0.00 74 1015.0
20260905185436 26 74 1.6 3.2 0.00 0.00 0.00 73 1014.9
20260905184437 27 74 3.2 4.8 0.00 0.00 0.00 73 1014.9
20260905183438 26 74 3.2 4.8 0.00 0.00 0.00 74 1014.7
20260905182936 26 68 3.2 4.8 0.00 0.00 0.00 73 1014.7
20260905182437 27 34 1.6 4.8 0.00 0.00 0.00 73 1014.5
20260905181937 27 34 3.2 4.8 0.00 0.00 0.00 72 1014.5
20260905181437 27 34 3.2 4.8 0.00 0.00 0.00 71 1014.4
20260905180954 27 34 1.6 3.2 0.00 0.00 0.00 70 1014.4
20260905180437 27 34 1.6 1.6 0.00 0.00 0.00 70 1014.3
20260905175436 28 34 0.0 0.0 0.00 0.00 0.00 69 1014.2
20260905174936 28 34 0.0 1.6 0.00 0.00 0.00 68 1014.2
20260905174440 28 34 0.0 3.2 0.00 0.00 0.00 67 1014.2
20260905173940 28 34 1.6 3.2 0.00 0.00 0.00 68 1014.1
20260905173436 28 34 0.0 0.0 0.00 0.00 0.00 67 1014.0
20260905172937 29 33 0.0 0.0 0.00 0.00 0.00 67 1014.0
20260905171937 30 33 0.0 1.6 0.00 0.00 0.00 64 1013.9
20260905171438 30 33 0.0 1.6 0.00 0.00 0.00 64 1013.9
20260905170939 30 302 1.6 3.2 0.00 0.00 0.00 62 1013.9
20260905165936 32 302 0.0 3.2 0.00 0.00 0.00 54 1013.9
20260905164937 32 286 3.2 4.8 0.00 0.00 0.00 52 1013.8
20260905164452 32 283 6.4 9.7 0.00 0.00 0.00 51 1013.8
20260905163937 32 298 3.2 4.8 0.00 0.00 0.00 51 1013.8
20260905162937 33 293 3.2 8.0 0.00 0.00 0.00 50 1013.8
20260905162437 33 292 4.8 9.7 0.00 0.00 0.00 50 1013.7
20260905161936 33 310 4.8 9.7 0.00 0.00 0.00 50 1013.7
20260905160437 33 307 4.8 11.3 0.00 0.00 0.00 50 1013.6
20260905155436 33 304 9.7 14.5 0.00 0.00 0.00 49 1013.6
20260905154436 33 304 6.4 11.3 0.00 0.00 0.00 48 1013.6
20260905153436 33 278 8.0 12.9 0.00 0.00 0.00 49 1013.6
20260905152937 33 276 3.2 9.7 0.00 0.00 0.00 51 1013.6
20260905152437 33 253 8.0 11.3 0.00 0.00 0.00 50 1013.6
20260905151436 33 275 11.3 16.1 0.00 0.00 0.00 49 1013.6
20260905150937 33 257 6.4 19.3 0.00 0.00 0.00 49 1013.6
20260905145936 33 297 8.0 12.9 0.00 0.00 0.00 49 1013.7
20260905145454 33 267 9.7 16.1 0.00 0.00 0.00 50 1013.6
20260905144936 33 271 8.0 14.5 0.00 0.00 0.00 49 1013.6
20260905144439 33 292 8.0 19.3 0.00 0.00 0.00 51 1013.6
20260905143944 33 298 4.8 11.3 0.00 0.00 0.00 51 1013.7
20260905143439 33 252 9.7 14.5 0.00 0.00 0.00 51 1013.7
20260905142936 33 255 12.9 19.3 0.00 0.00 0.00 51 1013.7
20260905142436 33 284 9.7 14.5 0.00 0.00 0.00 49 1013.8
20260905141936 33 296 8.0 16.1 0.00 0.00 0.00 51 1013.9
20260905141436 33 286 12.9 19.3 0.00 0.00 0.00 50 1014.0
20260905140936 33 304 11.3 16.1 0.00 0.00 0.00 51 1013.9
20260905140448 33 241 4.8 9.7 0.00 0.00 0.00 52 1014.0
20260905135436 33 273 9.7 16.1 0.00 0.00 0.00 52 1014.1
20260905134439 33 267 8.0 12.9 0.00 0.00 0.00 51 1014.1
20260905133936 33 294 8.0 16.1 0.00 0.00 0.00 51 1014.2
20260905132937 33 295 9.7 19.3 0.00 0.00 0.00 51 1014.3
20260905132436 32 242 4.8 11.3 0.00 0.00 0.00 55 1014.4
20260905131436 32 226 8.0 11.3 0.00 0.00 0.00 54 1014.4
20260905130936 32 256 9.7 14.5 0.00 0.00 0.00 53 1014.5
20260905125438 32 239 4.8 11.3 0.00 0.00 0.00 56 1014.6
20260905124436 32 270 4.8 11.3 0.00 0.00 0.00 57 1014.9
20260905123951 32 327 6.4 14.5 0.00 0.00 0.00 57 1014.9
20260905122935 32 293 6.4 11.3 0.00 0.00 0.00 57 1015.0
20260905122436 32 265 8.0 14.5 0.00 0.00 0.00 57 1015.0
20260905121435 32 247 6.4 11.3 0.00 0.00 0.00 59 1015.1
20260905120936 31 287 8.0 16.1 0.00 0.00 0.00 59 1015.0
20260905115437 31 287 9.7 16.1 0.00 0.00 0.00 57 1015.2
20260905114935 31 290 11.3 19.3 0.00 0.00 0.00 56 1015.3
20260905113937 31 272 9.7 12.9 0.00 0.00 0.00 56 1015.3
20260905113436 31 237 9.7 19.3 0.00 0.00 0.00 56 1015.4
20260905112437 31 282 9.7 14.5 0.00 0.00 0.00 57 1015.4
20260905111939 31 287 8.0 16.1 0.00 0.00 0.00 57 1015.4
20260905111441 31 264 12.9 16.1 0.00 0.00 0.00 55 1015.3